Miscellaneous Local Product
Issued by NWS Hastings, NE

Home | Current Version | Previous Version | Text Only | Print | Product List | Glossary On
Versions: 1 2 3 4 5 6 7 8 9 10 11 12 13 14 15 16 17 18 19 20 21 22 23 24 25 26 27 28 29 30 31 32 33 34 35 36 37 38 39 40 41 42 43 44 45 46 47 48 49 50
000
AXUS43 KGID 201302
MISGRI

GID CWA HOURLY WEATHER ROUNDUP
NATIONAL WEATHER SERVICE HASTINGS NE
800 AM CDT MON OCT 20 2014

NOTE: "FAIR" INDICATES FEW OR NO CLOUDS BELOW 12,000 FEET WITH NO
SIGNIFICANT WEATHER AND/OR OBSTRUCTIONS TO VISIBILITY.

...SOUTH CENTRAL NEBRASKA...

CITY           SKY/WX    TMP DP  RH WIND       PRES   REMARKS
GRAND ISLAND   CLEAR     40  37  89 NW7       30.09R
HASTINGS       CLEAR     42  38  85 N5        30.08R
KEARNEY        CLEAR     43  37  81 W9        30.09S
ORD            CLEAR     37  35  92 NW7       30.09R WCI  32
YORK           CLEAR     41  37  87 N12       30.08R
AURORA         CLEAR     41  38  90 NW6       30.08R
LEXINGTON      CLEAR     38  36  92 W6        30.10S WCI  33
HOLDREGE       CLEAR     41  38  88 CALM      30.09R
HEBRON         CLEAR     44  41  89 CALM      30.06R

...NEBRASKA PANHANDLE...

CITY           SKY/WX    TMP DP  RH WIND       PRES   REMARKS
CHADRON        CLEAR     32  30  92 CALM      30.06F
ALLIANCE       CLEAR     28  26  92 W7        30.11S WCI  21
SCOTTSBLUFF    PTCLDY    37  33  85 E3        30.11S
SIDNEY         CLEAR     38  34  85 SW8       30.13S WCI  32

...WESTERN AND NORTH CENTRAL NEBRASKA...

CITY           SKY/WX    TMP DP  RH WIND       PRES   REMARKS
VALENTINE      CLEAR     31  29  92 W5        30.11S WCI  26
AINSWORTH      CLEAR     37  33  87 CALM      30.10S
ONEILL         CLEAR     40  37  90 NW3       30.10R
BROKEN BOW     CLEAR     35  32  88 CALM      30.09S
IMPERIAL       CLEAR     38  32  79 W5        30.13R WCI  34
NORTH PLATTE   CLEAR     32  31  96 NW5       30.11S WCI  27
MCCOOK         CLEAR     38  36  92 W6        30.11R WCI  33

...EASTERN NEBRASKA...

CITY           SKY/WX    TMP DP  RH WIND       PRES   REMARKS
NORFOLK        CLEAR     40  37  89 CALM      30.09R
SO SIOUX CITY  CLEAR     37  36  96 NW7       30.08R WCI  32
TEKAMAH        CLEAR     43  39  86 N6        30.06R
COLUMBUS       CLEAR     45  37  76 NW5       30.09R
ALBION         CLEAR     40  35  84 NW5       30.09R
OMAHA EPPLEY   CLEAR     45  42  89 N7        30.07R
OFFUTT AFB     CLEAR     43  43 100 W5        30.05R
MILLARD        CLEAR     45  43  93 CALM      30.06R
LINCOLN        CLEAR     42  40  92 N5        30.08R
NEBRASKA CITY  CLEAR     48  44  85 N7        30.04R
BEATRICE       CLEAR     39  38  98 CALM      30.05R
FALLS CITY     CLEAR     48  46  93 NW7       30.02R

...NORTHERN KANSAS...

CITY           SKY/WX    TMP DP  RH WIND       PRES   REMARKS
GOODLAND       CLEAR     39  36  89 W5        30.14S
HILL CITY      CLEAR     42  40  92 W5        30.10R
NORTON         SUNNY     39  36  87 W5        30.09R
PHILLIPSBURG   CLEAR     45  45 100 W7        30.08S
SMITH CENTER   CLEAR     37  37 100 W5        30.08R FOG     WCI  34
BELOIT           N/A     41  41 100 CALM      30.06R VSB 1/4
HAYS           CLEAR     45  37  76 NW6       30.09R
RUSSELL        FOG       44  43  96 W3        30.07R VSB 1/4
CONCORDIA      CLEAR     47  47 100 W8        30.05S
SALINA         CLEAR     47  45  93 W5        30.07R HAZE
TOPEKA         CLEAR     46  46 100 CALM      30.03R



USA.gov is the U.S. government's official web portal to all federal, state and local government web resources and services.